User: anonymous   Login
Location: Caserta
(41.0670°N, 14.3330°E)
Time: 13:59:03
(UTC+02:00)
Language:

STARLINK-1329 - Orbit

View from above orbital plane
View from above orbital plane
View from above satellite
View from above satellite

Ground track
Ground track

The orbit data is extracted from the following two-line orbital elements,

1 45531U 20025A   20227.16667824 -.00033027  00000-0 -22582-2 0  9998
2 45531  52.9984 235.4570 0001170  95.5662  47.3379 15.05578540 18007
Epoch (UTC): 14 August 2020 04:00:01
Eccentricity: 0.0001170
inclination: 52.9984°
perigee height: 549 km
apogee height: 550 km
right ascension of ascending node: 235.4570°
argument of perigee: 95.5662°
revolutions per day: 15.05578540
mean anomaly at epoch: 47.3379°
orbit number at epoch: 1800

The dashed part of the orbit path shows where the satellite is in the earth's shadow,  

DLR